GW5597 Weather Reports


Display with metric or nautical units.
time (UTC)temp
F
wind
direction
speed
MPH
gust
MPH
rain 1hr
in
rain 24hr
in
rain mn
in
humidity
%
barometer
mb
20260505165121 58 135 1.0 2.0 0.00 0.07 0.00 80 1015.9
20260505164620 58 175 1.0 2.0 0.00 0.07 0.00 80 1015.8
20260505164120 58 123 1.0 2.0 0.00 0.07 0.00 81 1015.9
20260505163624 58 71 1.0 2.0 0.00 0.07 0.00 82 1015.8
20260505163121 58 356 1.0 2.0 0.00 0.07 0.00 82 1015.8
20260505162622 58 87 1.0 3.0 0.00 0.07 0.00 81 1015.7
20260505162123 57 233 1.0 3.0 0.00 0.07 0.00 82 1015.8
20260505161842 57 82 1.0 2.0 0.00 0.07 0.00 83 1015.7
20260505161342 57 167 1.0 3.0 0.00 0.07 0.00 84 1015.7
20260505160844 57 191 1.0 3.0 0.00 0.07 0.00 84 1015.7
20260505160123 56 122 1.0 2.0 0.00 0.07 0.00 85 1015.7
20260505153114 56 0 1.0 3.0 0.00 0.07 0.00 87 1015.7
20260505152614 56 124 1.0 3.0 0.00 0.07 0.00 87 1015.6
20260505152114 56 221 1.0 2.0 0.00 0.07 0.00 87 1015.6
20260505151614 56 61 1.0 2.0 0.00 0.07 0.00 87 1015.6
20260505151114 56 193 1.0 2.0 0.00 0.07 0.00 87 1015.6
20260505150614 55 162 1.0 2.0 0.00 0.07 0.00 87 1015.6
20260505150114 55 126 1.0 2.0 0.00 0.07 0.00 87 1015.5
20260505140608 55 121 1.0 2.0 0.00 0.07 0.00 89 1015.0
20260505140108 55 173 1.0 2.0 0.00 0.07 0.00 88 1015.0
20260505124600 55 90 1.0 2.0 0.00 0.07 0.00 87 1014.6
20260505124318 55 160 1.0 2.0 0.00 0.07 0.00 87 1014.6
20260505123600 55 0 1.0 2.0 0.00 0.07 0.00 87 1014.5
20260505123315 55 140 1.0 2.0 0.00 0.07 0.00 87 1014.5
20260505122557 55 183 1.0 1.0 0.00 0.07 0.00 87 1014.6
20260505122538 55 157 1.0 2.0 0.00 0.07 0.00 87 1014.6
20260505121817 55 89 1.0 2.0 0.00 0.07 0.00 87 1014.5
20260505121057 55 176 1.0 3.0 0.00 0.07 0.00 87 1014.5
20260505120833 55 0 1.0 3.0 0.00 0.07 0.00 87 1014.5
20260505120320 55 218 0.0 2.0 0.00 0.07 0.00 87 1014.5
20260505115557 55 161 0.0 1.0 0.00 0.07 0.00 87 1014.5
20260505115057 55 0 1.0 2.0 0.00 0.07 0.00 87 1014.5
20260505114555 55 178 1.0 2.0 0.00 0.07 0.00 87 1014.5
20260505114054 55 173 0.0 2.0 0.00 0.07 0.00 87 1014.5
20260505113554 55 126 0.0 2.0 0.00 0.07 0.00 87 1014.5
20260505113054 55 78 1.0 2.0 0.00 0.07 0.00 86 1014.4
20260505112554 55 149 1.0 2.0 0.00 0.07 0.00 86 1014.5
20260505112053 55 80 1.0 2.0 0.00 0.07 0.00 86 1014.5
20260505111554 55 147 1.0 2.0 0.00 0.07 0.00 86 1014.4
20260505111053 55 110 1.0 2.0 0.00 0.07 0.00 87 1014.4
20260505110554 55 183 1.0 2.0 0.00 0.07 0.00 87 1014.4
20260505102049 55 104 1.0 2.0 0.00 0.07 0.00 85 1014.0
20260505101548 55 0 1.0 2.0 0.00 0.07 0.00 85 1013.9
20260505101049 55 72 1.0 2.0 0.00 0.07 0.00 86 1014.0
20260505100549 55 149 1.0 2.0 0.00 0.07 0.00 85 1014.0
20260505100313 55 112 1.0 2.0 0.00 0.07 0.00 85 1014.0
20260505095545 55 98 0.0 2.0 0.00 0.07 0.00 85 1014.0
20260505095043 55 68 0.0 2.0 0.00 0.07 0.00 85 1014.0
20260505094539 56 90 1.0 2.0 0.00 0.07 0.00 85 1014.0
20260505094039 56 145 1.0 2.0 0.00 0.07 0.00 84 1013.9
20260505093539 56 181 1.0 2.0 0.00 0.07 0.00 83 1013.9
20260505093316 56 62 1.0 2.0 0.00 0.07 0.00 83 1013.8
20260505092539 56 95 1.0 2.0 0.00 0.07 0.00 83 1013.8
20260505092300 56 133 1.0 2.0 0.00 0.07 0.00 83 1013.8
20260505091539 56 189 1.0 2.0 0.00 0.07 0.00 83 1013.7
20260505091040 57 155 1.0 2.0 0.00 0.07 0.00 83 1013.7
20260505090540 57 75 1.0 2.0 0.00 0.07 0.00 83 1013.6
20260505090259 57 73 1.0 2.0 0.00 0.07 0.00 83 1013.5
20260505085534 57 175 1.0 2.0 0.00 0.07 0.00 82 1013.5
20260505085034 57 158 1.0 2.0 0.00 0.07 0.00 82 1013.5
20260505084531 57 81 1.0 2.0 0.00 0.07 0.00 83 1013.6
20260505084031 57 0 1.0 1.0 0.00 0.07 0.00 84 1013.5
20260505083528 57 25 0.0 1.0 0.00 0.07 0.00 85 1013.5
20260505083253 57 88 0.0 1.0 0.00 0.07 0.00 85 1013.5
20260505082528 57 0 1.0 2.0 0.00 0.07 0.00 85 1013.5
20260505082029 58 94 1.0 2.0 0.00 0.07 0.00 84 1013.4
20260505081529 58 287 1.0 2.0 0.00 0.07 0.00 84 1013.4
20260505081029 58 23 1.0 2.0 0.00 0.07 0.00 84 1013.4
20260505080526 58 2 1.0 2.0 0.00 0.07 0.00 83 1013.4
20260505080027 58 66 1.0 2.0 0.00 0.07 0.00 83 1013.3
20260505075527 58 84 1.0 2.0 0.00 0.07 0.00 83 1013.3
20260505075027 58 73 1.0 2.0 0.00 0.07 0.00 83 1013.3
20260505074527 59 162 1.0 2.0 0.00 0.07 0.00 82 1013.3
20260505074027 59 111 1.0 2.0 0.00 0.07 0.00 81 1013.1
20260505073524 59 79 1.0 2.0 0.00 0.07 0.00 80 1013.1
20260505073024 59 251 1.0 2.0 0.00 0.07 0.00 80 1013.0
20260505072524 59 80 1.0 3.0 0.00 0.07 0.00 80 1012.9
20260505072021 59 76 1.0 3.0 0.00 0.07 0.00 79 1012.9
20260505071522 59 162 1.0 2.0 0.00 0.07 0.00 80 1012.8
20260505071022 59 257 1.0 2.0 0.00 0.07 0.00 79 1012.8
20260505070746 60 136 1.0 2.0 0.00 0.07 0.00 79 1012.7
20260505070022 60 159 1.0 2.0 0.00 0.07 0.00 80 1012.7
20260505065749 59 25 0.0 2.0 0.00 0.07 0.07 81 1012.7
20260505065022 59 168 1.0 2.0 0.00 0.07 0.07 82 1012.6
20260505064519 59 260 0.0 2.0 0.00 0.07 0.07 82 1012.5
20260505064016 59 93 0.0 2.0 0.00 0.07 0.07 83 1012.4
20260505063516 59 175 0.0 2.0 0.00 0.07 0.07 83 1012.3
20260505063016 60 0 0.0 1.0 0.00 0.07 0.07 83 1012.3
20260505062516 60 0 0.0 1.0 0.00 0.07 0.07 82 1012.2
20260505062456 60 114 0.0 2.0 0.00 0.07 0.07 81 1012.1
20260505061514 60 115 1.0 2.0 0.00 0.07 0.07 81 1012.0
20260505061013 61 161 1.0 2.0 0.00 0.07 0.07 80 1012.0
20260505060514 61 113 1.0 2.0 0.00 0.07 0.07 79 1011.9
20260505060014 61 98 1.0 2.0 0.00 0.07 0.07 79 1012.0
20260505055514 62 131 1.0 2.0 0.00 0.07 0.07 78 1012.0
20260505055229 62 87 1.0 2.0 0.00 0.07 0.07 77 1012.0
20260505054511 62 126 0.0 2.0 0.00 0.07 0.07 77 1011.9
20260505054010 63 349 1.0 2.0 0.00 0.07 0.07 76 1011.9
20260505053737 63 99 1.0 2.0 0.00 0.07 0.07 76 1011.8
20260505053239 64 124 1.0 2.0 0.00 0.07 0.07 75 1011.8
20260505052513 64 89 1.0 3.0 0.00 0.07 0.07 74 1011.8
20260505052234 64 0 1.0 3.0 0.00 0.07 0.07 74 1011.8
20260505051510 64 20 1.0 2.0 0.00 0.07 0.07 73 1011.7
20260505051010 64 31 1.0 2.0 0.00 0.07 0.07 72 1011.6
20260505050510 65 301 1.0 2.0 0.00 0.07 0.07 72 1011.6
20260505050229 65 77 0.0 1.0 0.00 0.07 0.07 72 1011.6
20260505041509 68 329 0.0 2.0 0.00 0.07 0.07 70 1011.0
20260505041009 68 0 0.0 2.0 0.00 0.07 0.07 70 1010.9
20260505040510 68 0 0.0 2.0 0.00 0.07 0.07 70 1010.8
20260505040010 68 351 0.0 2.0 0.00 0.07 0.07 70 1010.8
20260505035509 69 70 0.0 2.0 0.00 0.07 0.07 71 1010.7
20260505035010 69 0 0.0 3.0 0.00 0.07 0.07 71 1010.6
20260505034510 69 0 1.0 3.0 0.00 0.07 0.07 70 1010.5
20260505034007 69 275 1.0 2.0 0.00 0.07 0.07 70 1010.3
20260505033506 69 0 1.0 4.0 0.00 0.07 0.07 70 1010.2
20260505033237 69 339 1.0 4.0 0.00 0.07 0.07 70 1010.2
20260505032732 70 252 1.0 3.0 0.00 0.07 0.07 70 1010.1
20260505032005 70 162 1.0 3.0 0.00 0.07 0.07 70 1010.0
20260505031732 70 0 0.0 3.0 0.00 0.07 0.07 69 1010.0
20260505031004 70 192 1.0 3.0 0.00 0.07 0.07 69 1009.9
20260505030507 70 205 1.0 3.0 0.00 0.07 0.07 69 1009.9
20260505030005 71 265 1.0 3.0 0.00 0.07 0.07 68 1009.9
20260505025504 71 195 1.0 4.0 0.00 0.07 0.07 68 1009.8
20260505025004 71 247 1.0 4.0 0.00 0.07 0.07 68 1009.8
20260505024728 71 286 1.0 4.0 0.00 0.07 0.07 67 1009.7
20260505024004 71 274 1.0 4.0 0.00 0.07 0.07 67 1009.7
20260505023504 71 179 1.0 4.0 0.00 0.07 0.07 67 1009.7
20260505023004 71 236 1.0 4.0 0.00 0.07 0.07 67 1009.7
20260505022504 72 116 1.0 4.0 0.00 0.07 0.07 66 1009.7
20260505022004 72 208 1.0 4.0 0.00 0.07 0.07 66 1009.7
20260505021737 72 185 1.0 4.0 0.00 0.07 0.07 65 1009.7
20260505021004 72 191 1.0 5.0 0.00 0.07 0.07 65 1009.7
20260505020504 73 273 1.0 5.0 0.00 0.07 0.07 64 1009.7
20260505020004 73 289 1.0 3.0 0.00 0.07 0.07 64 1009.7
20260505015504 73 0 1.0 3.0 0.00 0.07 0.07 64 1009.7
20260505015004 73 190 1.0 3.0 0.00 0.07 0.07 64 1009.7
20260505014505 73 265 1.0 3.0 0.00 0.07 0.07 63 1009.7
20260505014001 73 31 1.0 4.0 0.00 0.07 0.07 63 1009.7
20260505013501 74 179 1.0 4.0 0.00 0.07 0.07 62 1009.8
20260505013000 74 248 1.0 4.0 0.00 0.07 0.07 62 1009.8
20260505012500 75 200 1.0 4.0 0.00 0.07 0.07 60 1009.9
20260505012000 75 192 1.0 4.0 0.02 0.07 0.07 60 1009.9
20260505011500 76 154 1.0 4.0 0.05 0.07 0.07 58 1010.0
20260505011001 76 201 1.0 3.0 0.07 0.07 0.07 58 1010.0
20260505010501 75 322 1.0 4.0 0.07 0.07 0.07 58 1009.9
20260505010000 76 264 1.0 4.0 0.07 0.07 0.07 58 1010.0
20260505005501 76 195 1.0 5.0 0.07 0.07 0.07 57 1010.0
20260505004958 75 259 1.0 5.0 0.07 0.07 0.07 58 1010.1
20260505004720 75 177 1.0 6.0 0.07 0.07 0.07 58 1010.2
20260505003958 75 277 1.0 6.0 0.07 0.07 0.07 59 1010.1
20260505003459 75 0 2.0 6.0 0.07 0.07 0.07 59 1010.2
20260505003440 75 184 2.0 7.0 0.07 0.07 0.07 59 1010.1
20260505002455 75 208 2.0 7.0 0.07 0.07 0.07 59 1010.2
20260505001956 75 274 2.0 4.0 0.05 0.05 0.06 58 1010.2
20260505001456 74 192 2.0 4.0 0.02 0.02 0.02 59 1010.1
20260505000956 74 255 1.0 4.0 0.00 0.00 0.00 59 1010.1
20260505000455 74 258 1.0 7.0 0.00 0.00 0.00 59 1010.2
20260504235456 75 286 1.0 5.0 0.00 0.00 0.00 57 1010.4
20260504234956 75 284 1.0 4.0 0.00 0.00 0.00 57 1010.3
20260504234455 74 0 1.0 4.0 0.00 0.00 0.00 58 1010.3
20260504233954 74 101 2.0 5.0 0.00 0.00 0.00 58 1010.3
20260504233453 74 276 2.0 6.0 0.00 0.00 0.00 58 1010.3
20260504232954 74 178 2.0 6.0 0.00 0.00 0.00 58 1010.4
20260504232454 74 266 2.0 5.0 0.00 0.00 0.00 58 1010.4
20260504232225 74 189 2.0 5.0 0.00 0.00 0.00 58 1010.4
20260504231455 74 291 1.0 4.0 0.00 0.00 0.00 58 1010.5
20260504230954 74 248 1.0 4.0 0.00 0.00 0.00 57 1010.5
20260504230453 74 202 2.0 6.0 0.00 0.00 0.00 57 1010.6
20260504225954 74 332 2.0 6.0 0.00 0.00 0.00 57 1010.6
20260504225454 74 209 1.0 4.0 0.00 0.00 0.00 56 1010.7
20260504224954 74 0 1.0 3.0 0.00 0.00 0.00 55 1010.8
20260504224452 74 179 1.0 4.0 0.00 0.00 0.00 56 1010.8
20260504223951 74 0 1.0 4.0 0.00 0.00 0.00 56 1010.9
20260504223448 74 300 1.0 3.0 0.00 0.00 0.00 56 1010.9
20260504222943 73 226 2.0 5.0 0.00 0.00 0.00 56 1011.0
20260504222443 73 190 1.0 5.0 0.00 0.00 0.00 55 1011.1
20260504221944 74 21 1.0 5.0 0.00 0.00 0.00 54 1011.2
20260504221929 74 187 1.0 5.0 0.00 0.00 0.00 55 1011.2
20260504220945 74 231 1.0 4.0 0.00 0.00 0.00 55 1011.3
20260504220444 74 283 2.0 4.0 0.00 0.00 0.00 55 1011.3
20260504215944 74 185 1.0 4.0 0.00 0.00 0.00 54 1011.4
20260504215445 73 240 1.0 4.0 0.00 0.00 0.00 55 1011.5
20260504214944 73 30 1.0 5.0 0.00 0.00 0.00 55 1011.6
20260504214442 73 307 1.0 5.0 0.00 0.00 0.00 56 1011.6
20260504213942 72 226 1.0 5.0 0.00 0.00 0.00 57 1011.7
20260504213442 72 189 2.0 5.0 0.00 0.00 0.00 58 1011.7
20260504212942 72 336 2.0 5.0 0.00 0.00 0.00 59 1011.7
20260504212442 72 308 1.0 7.0 0.00 0.00 0.00 58 1011.9
20260504211942 71 0 1.0 7.0 0.00 0.00 0.00 59 1011.9
20260504211442 71 287 1.0 5.0 0.00 0.00 0.00 59 1012.0
20260504211208 70 188 2.0 5.0 0.00 0.00 0.00 60 1012.1
20260504210442 70 346 2.0 5.0 0.00 0.00 0.00 61 1012.1
20260504205939 70 274 2.0 6.0 0.00 0.00 0.00 61 1012.2
20260504205439 70 33 1.0 6.0 0.00 0.00 0.00 61 1012.3
20260504204940 69 217 2.0 6.0 0.00 0.00 0.00 62 1012.3
20260504204440 69 305 2.0 5.0 0.00 0.00 0.00 62 1012.4
20260504203940 70 276 2.0 5.0 0.00 0.00 0.00 62 1012.5
20260504203439 69 216 1.0 4.0 0.00 0.00 0.00 61 1012.6
20260504202939 69 283 2.0 6.0 0.00 0.00 0.00 63 1012.6
20260504202440 68 19 2.0 6.0 0.00 0.00 0.00 63 1012.6
20260504201940 67 227 1.0 4.0 0.00 0.00 0.00 64 1012.7
20260504201440 67 114 2.0 4.0 0.00 0.00 0.00 66 1012.7
20260504200940 67 164 2.0 5.0 0.00 0.00 0.00 66 1012.8
20260504200440 67 284 1.0 5.0 0.00 0.00 0.00 65 1012.9
20260504195941 67 84 1.0 5.0 0.00 0.00 0.00 64 1012.9
20260504195659 66 220 1.0 4.0 0.00 0.00 0.00 66 1013.0
20260504194938 66 173 2.0 5.0 0.00 0.00 0.00 66 1013.0
20260504194443 66 170 2.0 5.0 0.00 0.00 0.00 68 1013.0
20260504193944 66 256 1.0 4.0 0.00 0.00 0.00 67 1013.0
20260504193443 65 185 1.0 4.0 0.00 0.00 0.00 67 1013.0
20260504192940 64 108 1.0 5.0 0.00 0.00 0.00 70 1013.0
20260504192441 64 233 2.0 6.0 0.00 0.00 0.00 71 1013.0
20260504191941 63 233 2.0 6.0 0.00 0.00 0.00 71 1013.1
20260504191441 62 32 2.0 4.0 0.00 0.00 0.00 73 1013.2
20260504190941 62 89 1.0 4.0 0.00 0.00 0.00 74 1013.2
20260504190441 62 0 1.0 5.0 0.00 0.00 0.00 75 1013.2
20260504185941 62 213 2.0 5.0 0.00 0.00 0.00 74 1013.3
20260504185438 62 149 2.0 5.0 0.00 0.00 0.00 74 1013.3
20260504184939 62 169 2.0 5.0 0.00 0.00 0.00 75 1013.4
20260504184437 62 71 2.0 4.0 0.00 0.00 0.00 75 1013.4
20260504183934 61 191 2.0 4.0 0.00 0.00 0.00 75 1013.4
20260504183434 61 177 2.0 4.0 0.00 0.00 0.00 76 1013.3
20260504182934 61 245 1.0 3.0 0.00 0.00 0.00 77 1013.3
20260504182434 60 150 2.0 4.0 0.00 0.00 0.00 77 1013.3
20260504181934 60 181 2.0 4.0 0.00 0.00 0.00 77 1013.3
20260504181434 60 191 2.0 5.0 0.00 0.00 0.00 78 1013.3
20260504180935 60 81 2.0 5.0 0.00 0.00 0.00 78 1013.3
20260504180435 59 133 1.0 3.0 0.00 0.00 0.00 79 1013.3
20260504175935 59 101 1.0 3.0 0.00 0.00 0.00 79 1013.3
20260504175435 59 52 1.0 4.0 0.00 0.00 0.00 80 1013.3
20260504174934 59 218 1.0 4.0 0.00 0.00 0.00 81 1013.3
20260504174434 58 140 1.0 3.0 0.00 0.00 0.00 80 1013.4
20260504173934 58 181 1.0 3.0 0.00 0.00 0.00 81 1013.3
20260504173433 58 112 1.0 6.0 0.00 0.00 0.00 82 1013.3
20260504172935 58 204 1.0 6.0 0.00 0.00 0.00 82 1013.3
20260504172434 58 119 2.0 6.0 0.00 0.00 0.00 83 1013.3
20260504171934 58 110 2.0 6.0 0.00 0.00 0.00 83 1013.3
20260504171434 58 84 1.0 4.0 0.00 0.00 0.00 84 1013.2
20260504170934 58 111 1.0 4.0 0.00 0.00 0.00 83 1013.3
20260504170434 58 59 1.0 4.0 0.00 0.00 0.00 83 1013.2